Regional Weather Roundup
Issued by NWS Grand Forks, ND

Home | Current Version | Previous Version | Text Only | Print | Product List | Glossary Off
Versions: 1 2 3 4 5 6 7 8 9 10 11 12 13 14 15 16 17 18 19 20 21 22 23 24 25 26 27 28 29 30 31 32 33 34 35 36 37 38 39 40 41 42 43 44 45 46 47 48 49 50

000
ASUS43 KFGF 221931
RWRFGF
PRAIRIE TO PINES  WEATHER ROUNDUP
NATIONAL WEATHER SERVICE EASTERN NORTH DAKOTA/GRAND FORKS ND
100 PM CST WED FEB 22 2017

 **SATELLITE DATA USED TO AUGMENT SKY COVER AT AUTOMATED STATIONS**
 *****  WEATHER ACROSS EASTERN NORTH DAKOTA  *****

CITY           SKY/WX    TMP DP  RH WIND       PRES   REMARKS
GRAND FORKS    CLOUDY    35  25  66 N22       29.78S WCI  23
GRAND FRKS AFB CLOUDY    33  29  85 NE18      29.79S WCI  22
DEVILS LAKE    CLOUDY    31  27  85 N17       29.83R WCI  19
FARGO          LGT SNOW  34  33  96 N17       29.71R VSB 3/4 WCI  23
WAHPETON ARPT  CLOUDY    34  32  93 NW13G20   29.68F WCI  25
$$

 ***** WEATHER ACROSS CENTRAL AND WESTERN NORTH DAKOTA  *****

CITY           SKY/WX    TMP DP  RH WIND       PRES   REMARKS
BISMARCK       LGT SNOW  35  33  92 N9        29.82R FOG
MINOT          CLOUDY    33  28  81 N13       29.86S WCI  24
JAMESTOWN      LGT SNOW  32  31  96 N16G24    29.76R VSB 1   WCI  21
MINOT AFB      CLOUDY    32  27  82 N13       29.86R WCI  22
GARRISON         N/A     31  29  92 N9        29.84R WCI  23
WILLISTON      CLOUDY    32  26  78 N13       29.92R WCI  22
DICKINSON      LGT SNOW  30  27  88 N14       29.82S FOG     WCI  19
HETTINGER      CLOUDY    33  29  85 N17       29.82R WCI  22
$$

 *****  OTHER AIRPORT OBSERVATIONS IN OUR AREA  *****

CITY           SKY/WX    TMP DP  RH WIND       PRES   REMARKS
WALHALLA       NOT AVBL
GRAFTON AIRPOR CLOUDY    34  30  86 N15       29.83R WCI  24
VALLEY CITY AR LGT SNOW  32  32 100 N17       29.76R WCI  21
CANDO          NOT AVBL
CAVALIER APRT    N/A     32  28  86 N9        29.83S WCI  24
GWINNER        CLOUDY    34  34 100 N15       29.70S WCI  24
SHEYENNE NWR     N/A     33  33 100 NW6       29.95S
ROLLA          CLOUDY    30  30 100 N10       29.85R WCI  21
 ***** THE ABOVE OBSERVATIONS ARE NON NWS ARE NOT QUALITY
       CONTROLLED AND MAY MIS-REPORT RAIN FOR SNOW...
$$

  *****  WEATHER ACROSS NORTHERN MINNESOTA  *****

CITY           SKY/WX    TMP DP  RH WIND       PRES   REMARKS
FLAG ISLAND    CLOUDY    30  25  80 N14       29.77R WCI  20
WARROAD        CLOUDY    34  28  80 N9        29.77S
ROSEAU         CLOUDY    34  27  75 N10       29.78R
HALLOCK        CLOUDY    34  28  80 N14       29.80F WCI  24
THF RVR FALLS  FLURRIES  33  29  85 N15       29.75R WCI  23
BAUDETTE       CLOUDY    32  27  81 N15       29.73S WCI  22
WASKISH        LGT SNOW  34  32  93 N7        29.71S
CROOKSTON      CLOUDY    34  32  93 N13       29.77R WCI  25
STEPHEN NDAWN    N/A     34  28  80 N14         N/A  WCI  24
GREENBUSH NDAW   N/A     30  27  86 N15         N/A  WCI  19
$$
  *****  WEATHER ACROSS CENTRAL AND WEST MINNESOTA  *****

CITY           SKY/WX    TMP DP  RH WIND       PRES   REMARKS
FOSSTON        CLOUDY    32  32 100 N17       29.70R WCI  21
BEMIDJI        LGT RAIN  33  32  96 N12G17    29.66S WCI  25
PARK RAPIDS    LGT RAIN  39  35  86 N9        29.60F
ELBOW LAKE     CLOUDY    36  35  96 W21       29.64S
WADENA         LGT RAIN  37  37 100 NE8       29.57F
DETROIT LAKES  RAIN      36  36 100 NW15G21   29.66R
MOORHEAD       LGT SNOW  32  30  93 N16       29.71S WCI  21
FERGUS FALLS   CLOUDY    34  34 100 N16G25    29.68S WCI  23
MORRIS MN      PTSUNNY   45  41  87 NW22      29.61R
STAPLES        LGT RAIN  39  37  93 NE10      29.57F
$$
  *****  WEATHER ELSEWHERE ACROSS MINNESOTA  *****

CITY           SKY/WX    TMP DP  RH WIND       PRES   REMARKS
DULUTH         PTSUNNY   46  36  68 E7        29.59F
INTRNTL FALLS  LGT SNOW  34  31  88 N10       29.69F FOG
ELY            PTSUNNY   37  30  75 N5        29.62F
CLOQUET        CLOUDY    46  34  61 E7        29.59S
WHEATON        PTSUNNY   37  34  87 NW21G26   29.66F
BRAINERD       LGT RAIN  43  38  82 N9        29.60S
HIBBING        CLOUDY    40  35  83 N8        29.61F
ALEXANDRIA     FAIR      47  39  74 NE12      29.56F
SAINT CLOUD    FAIR      52  42  69 VRB6      29.55F
MINNEAPOLIS    PTSUNNY   52  42  69 CALM      29.55S
$$

  *****  WEATHER ACROSS SOUTH DAKOTA  *****

CITY           SKY/WX    TMP DP  RH WIND       PRES   REMARKS
SIOUX FALLS    FAIR      61  43  51 W14       29.61F
BROOKINGS      FAIR      56  42  59 W18       29.59S
WATERTOWN      FAIR      51  40  65 NW20      29.61R
HURON          FAIR      52  41  66 NW17G26   29.67R
SISSETON         N/A     40  37  89 N23G30    29.64F
ABERDEEN       CLOUDY    45  36  70 N13       29.70R
MITCHELL       FAIR      60  41  49 NW23      29.66R
PIERRE         FAIR      53  37  54 NW17G24   29.73R
MOBRIDGE       CLOUDY    40  33  76 N9        29.73R
RAPID CITY     FAIR      57  20  23 NW20G30   29.75R
$$

  *****  SOME WEATHER IN NEARBY STATES *****

CITY           SKY/WX    TMP DP  RH WIND       PRES   REMARKS
GLASGOW MT     CLOUDY    32  26  78 VRB3      29.95R
GREAT FALLS MT CLOUDY    38  29  70 CALM      29.90R
CHEYENNE WY    PTSUNNY   43  16  33 NW22G32   29.85F
SCOTTSBLUFF NE PTSUNNY   53  20  27 W23G29    29.82F
OMAHA NE       FAIR      71  37  28 N6        29.63F
DES MOINES IA  FAIR      71  34  25 W24       29.60F
DAVENPORT IA   FAIR      69  50  50 S18       29.64F
CHICAGO IL     FAIR      64  53  67 SW12G20   29.70F
EAU CLAIRE WI  PTSUNNY   55  40  56 NE5       29.54F
LA CROSSE WI   FAIR      59  38  45 S7        29.56F
$$

  *****  SOME NATIONAL WEATHER *****

CITY           SKY/WX    TMP DP  RH WIND       PRES   REMARKS
LA GUARDIA NY  PTSUNNY   55  38  52 S3        29.91F
RALEIGH NC     CLOUDY    69  52  54 SW3       29.96F
ATLANTA GA     PTSUNNY   68  59  73 E14       29.86F
NEW ORLEANS LA FAIR      71  55  56 NW5       29.81F
OKLAHOMA CITY  FAIR      78  35  21 S21G26    29.75F
ALBUQUERQUE NM PTSUNNY   59  34  39 S5        30.07F
SALT LAKE CITY PTSUNNY   40  33  76 S9        29.93F
LOS ANGELES CA FAIR      59  51  75 W10       30.13F
BOISE ID       FAIR      40  27  59 W7        29.97F
SEATTLE WA     CLOUDY    39  34  82 S3        30.20F
$$

*** WEATHER ACROSS MANITOBA...SASKATCHEWAN AND ONTARIO ***
                ***ONTARIO***

CITY           SKY/WX    TMP DP  RH WIND       PRES   REMARKS
GERALDTON      CLOUDY    36  28  75 NW5       29.64R
THUNDER BAY    CLOUDY    43  32  65 NW6       29.63F
SIOUX LOOKOUT  CLOUDY    30  21  69 NW7       29.71F WCI  23
TORONTO        CLOUDY    45  45 100 SE6       29.81F FOG
BIG TROUT LK   PTSUNNY   14   3  62 NW20      29.67S HAZE    WCI  -3
PICKLE LAKE    CLOUDY    30  19  64 W13G18    29.65S WCI  20
DRYDEN         CLOUDY    30  25  80 NW10      29.72S WCI  21
KENORA         CLOUDY    32  21  64 N12       29.74F WCI  23
$$
                *** MANITOBA***

CITY           SKY/WX    TMP DP  RH WIND       PRES   REMARKS
BRANDON        PTSUNNY   36  25  64 NW9       29.85F
DAUPHIN        CLOUDY    30  25  80 NE10      29.88S WCI  21
ISLAND LAKE    PTSUNNY    9   0  66 NW9       29.80R WCI  -5
PILOT MOUND      N/A     30  23  74 N15         N/A  WCI  19
THE PAS        LGT SNOW  19  12  73 N12G18    29.92R WCI   7
THOMPSON       LGT SNOW   3  -6  66 N12       29.89R DRFTSNOWWCI -13
WINNIPEG       CLOUDY    34  30  86 NW8       29.83S
LYNN LAKE      LGT SNOW   1  -4  78 N9        29.95R WCI -14
CHURCHILL      PTSUNNY   -2  -8  78 NE21      29.99  WCI -25
GILLAM         LGT SNOW   1  -6  71 N15       29.84R WCI -18
$$
                ***SASKATCHEWAN***

CITY           SKY/WX    TMP DP  RH WIND       PRES   REMARKS
ESTEVAN        CLOUDY    32  25  74 W8        29.91R WCI  25
KINDERSLEY     CLOUDY    28  23  80 N13       29.95R WCI  18
LLOYDMINSTER   FLURRIES  23  19  86 NW9       29.98R WCI  13
PRINCE ALBERT  FLURRIES  23  12  63 N14       29.97S WCI  11
REGINA         PTSUNNY   36  25  64 NW9       29.92S
YORKTON        CLOUDY    32  28  86 N7        29.88R
N. BATTLEFORD  CLOUDY    27  21  80 N12       29.99R WCI  16
LA RONGE       PTSUNNY   18   7  62 NW13G20   29.98S WCI   4
SASKATOON      FLURRIES  28  25  86 N10       29.97R WCI  19
SWIFT CURRENT  MOSUNNY   34  27  75 NW8       29.91R
$$
NOTE: THESE ARE AUTOMATED STATIONS WITH LIMITED QUALITY CONTROL
      "FAIR" INDICATES FEW OR NO CLOUDS BELOW 12,000 FEET WITH NO
      SIGNIFICANT WEATHER AND/OR OBSTRUCTIONS TO VISIBILITY.
      SKY/WX - SKY CONDITION AND SIGNIFICANT WEATHER.
      TMP - AIR TEMPERATURE.    DP   - DEWPOINT TEMPERATURE.
      RH  - RELATIVE HUMIDITY.  PRES - PRESSURE.
      HX  - HEAT INDEX.         WCI  - WIND CHILL INDEX.
$




USA.gov is the U.S. government's official web portal to all federal, state and local government web resources and services.